Weather in Sabang

Indonesia     5°50′22″N   95°20′20″E
temp.,
°C
wind,
m/s
gust,
m/s
humid.,
%
clouds,
%
prec.,
mm/h
press.,
hPa
HPBL,
m
6 march, sat
sat601:00+28ene458239 1.4 1012558
04:00+28e347440 9.4 1010244
07:00+28e577438 10.5 1011702
10:00+29ene567226 0.0 1013718
13:00+28ne787653 1.3 1012596
16:00+28ne787536 4.0 1009520
19:00+28ne667666 5.2 1011522
22:00+28e4476100 0.5 1012464
7 march, sun
sun701:00+28se337897 1.9 1012224
04:00+28ssw227489 1.1 1010322
07:00+27ne237681 2.3 1011444
10:00+28ene5675100 1.9 1013787
13:00+28ene7877100 1.9 1010774
16:00+28ene8977100 0.0 1008643
19:00+28ene9107992 0.2 1010748
22:00+28e6777100 0.9 1012768
8 march, mon
mon801:00+28s337692 0.9 1012315
04:00+27se227414 1.8 1010140
07:00+28e577013 1.9 1011985
10:00+28ese467157 0.0 1013727
13:00+28ene557264 0.0 1011581
16:00+28ene226737 0.1 1009563
19:00+28ne106736 0.1 1010737
22:00+28ene116865 0.0 1013731
9 march, tue
tue901:00+28sse217258 0.0 1012345
04:00+27e337628 0.0 1010353
07:00+28e697428 0.0 1011833
10:00+28e1012759 0.0 10131023
13:00+28ene1113785 0.0 1011832
16:00+28ene1012800 0.0 1009716
19:00+28e910790 0.0 1010758
22:00+28e67760 0.0 1012697
10 march, wed
wed1001:00+27ese44780 0.0 1012319
04:00+28ene78740 0.0 1010865
07:00+28e911750 0.0 10111155
10:00+28e1011760 0.0 10131075
13:00+28ene1011760 0.0 1011795
16:00+29ene11127516 0.0 1009776
19:00+29e1011738 0.0 1010801
22:00+28ese79740 0.0 1011797